• Em Portugal
  • Lista de países
  • Para 7 dias
  • Temperatura da água
  • Mapas de satélite
  • Mapa do tempo
  • Widgets de tempo
  • user-avatar
    Iniciar Sessão

    Previsão horária em Djelfa

    Hoje, 21 Fevereiro, Quarta-feira

    Tempo Temperatura Precipitação Vento Pressão Humidade
    00:00 +3°C° 0 mm 5 m/s 658 mmHg 86%
    01:00 +3°C° 0 mm 5 m/s 658 mmHg 87%
    02:00 +2°C° 0 mm 5 m/s 657 mmHg 88%
    03:00 +2°C° 0 mm 5 m/s 657 mmHg 89%
    04:00 +3°C° 0 mm 4 m/s 657 mmHg 88%
    05:00 +3°C° 0 mm 4 m/s 656 mmHg 87%
    06:00 +3°C° 0 mm 4 m/s 656 mmHg 86%
    07:00 +4°C° 0 mm 4 m/s 656 mmHg 80%
    08:00 +5°C° 0 mm 5 m/s 656 mmHg 73%
    09:00 +6°C° 0 mm 5 m/s 656 mmHg 67%
    10:00 +7°C° 0,1 mm 6 m/s 656 mmHg 62%
    11:00 +8°C° 0,1 mm 6 m/s 655 mmHg 58%
    12:00 +9°C° 0,1 mm 6 m/s 655 mmHg 53%
    13:00 +9°C° 0,1 mm 7 m/s 655 mmHg 52%
    14:00 +9°C° 0,1 mm 7 m/s 654 mmHg 51%
    15:00 +9°C° 0,1 mm 7 m/s 653 mmHg 51%
    16:00 +9°C° 0,2 mm 7 m/s 653 mmHg 53%
    17:00 +8°C° 0,2 mm 7 m/s 653 mmHg 56%
    18:00 +7°C° 0,2 mm 6 m/s 653 mmHg 59%
    19:00 +5°C° 0,3 mm 6 m/s 653 mmHg 65%
    20:00 +5°C° 0,3 mm 6 m/s 653 mmHg 72%
    21:00 +4°C° 0,3 mm 6 m/s 653 mmHg 78%
    22:00 +3°C° 0,4 mm 6 m/s 653 mmHg 79%
    23:00 +3°C° 0,4 mm 7 m/s 653 mmHg 79%

    Amanhã, 22 Fevereiro, Quinta-feira

    Tempo Temperatura Precipitação Vento Pressão Humidade
    00:00 +2°C° 0,4 mm 7 m/s 654 mmHg 79%
    01:00 +1°C° 0 mm 6 m/s 653 mmHg 77%
    02:00 +1°C° 0 mm 6 m/s 653 mmHg 75%
    03:00 0°C° 0 mm 5 m/s 653 mmHg 72%
    04:00 0°C° 0 mm 5 m/s 653 mmHg 73%
    05:00 -1°C° 0 mm 5 m/s 653 mmHg 74%
    06:00 -2°C° 0 mm 6 m/s 653 mmHg 75%
    07:00 -2°C° 0 mm 6 m/s 653 mmHg 71%
    08:00 -1°C° 0 mm 7 m/s 653 mmHg 67%
    09:00 0°C° 0 mm 7 m/s 654 mmHg 64%
    10:00 +2°C° 0 mm 7 m/s 654 mmHg 59%
    11:00 +3°C° 0 mm 7 m/s 654 mmHg 54%
    12:00 +4°C° 0 mm 7 m/s 654 mmHg 50%
    13:00 +4°C° 0 mm 7 m/s 654 mmHg 48%
    14:00 +4°C° 0 mm 6 m/s 654 mmHg 45%
    15:00 +4°C° 0 mm 6 m/s 654 mmHg 43%
    16:00 +5°C° 0 mm 5 m/s 654 mmHg 46%
    17:00 +3°C° 0 mm 5 m/s 654 mmHg 48%
    18:00 +4°C° 0 mm 4 m/s 654 mmHg 50%
    19:00 +3°C° 0 mm 3 m/s 654 mmHg 53%
    20:00 +3°C° 0 mm 3 m/s 655 mmHg 56%
    21:00 +3°C° 0 mm 2 m/s 655 mmHg 59%
    22:00 +3°C° 0 mm 2 m/s 655 mmHg 62%
    23:00 +3°C° 0 mm 2 m/s 655 mmHg 65%

    Depois de amanhã, 23 Fevereiro, Sexta-feira

    Tempo Temperatura Precipitação Vento Pressão Humidade
    00:00 +2°C° 0 mm 2 m/s 655 mmHg 69%
    01:00 +2°C° 0 mm 2 m/s 654 mmHg 73%
    02:00 +1°C° 0 mm 3 m/s 654 mmHg 77%
    03:00 0°C° 0 mm 3 m/s 654 mmHg 81%
    04:00 0°C° 0 mm 3 m/s 654 mmHg 82%
    05:00 -1°C° 0 mm 4 m/s 654 mmHg 84%
    06:00 -1°C° 0 mm 4 m/s 654 mmHg 85%
    07:00 0°C° 0 mm 5 m/s 654 mmHg 80%
    08:00 +1°C° 0 mm 6 m/s 655 mmHg 74%
    09:00 +2°C° 0 mm 7 m/s 656 mmHg 68%
    10:00 +3°C° 0 mm 7 m/s 656 mmHg 60%
    11:00 +4°C° 0 mm 8 m/s 656 mmHg 51%
    12:00 +5°C° 0 mm 8 m/s 656 mmHg 43%
    13:00 +6°C° 0 mm 7 m/s 656 mmHg 40%
    14:00 +6°C° 0 mm 7 m/s 656 mmHg 36%
    15:00 +8°C° 0 mm 6 m/s 655 mmHg 33%
    16:00 +7°C° 0 mm 5 m/s 655 mmHg 36%
    17:00 +6°C° 0 mm 4 m/s 655 mmHg 40%
    18:00 +6°C° 0 mm 2 m/s 655 mmHg 43%
    19:00 +6°C° 0 mm 2 m/s 655 mmHg 45%
    20:00 +5°C° 0 mm 2 m/s 655 mmHg 47%
    21:00 +5°C° 0 mm 1 m/s 656 mmHg 49%
    22:00 +4°C° 0 mm 2 m/s 656 mmHg 49%
    23:00 +4°C° 0 mm 2 m/s 656 mmHg 48%

    24 Fevereiro, Sábado

    Tempo Temperatura Precipitação Vento Pressão Humidade
    00:00 +3°C° 0 mm 3 m/s 656 mmHg 48%
    01:00 +3°C° 0 mm 3 m/s 655 mmHg 49%
    02:00 +3°C° 0 mm 3 m/s 655 mmHg 50%
    03:00 +2°C° 0 mm 3 m/s 655 mmHg 52%
    04:00 +4°C° 0 mm 2 m/s 655 mmHg 53%
    05:00 +4°C° 0 mm 2 m/s 655 mmHg 53%
    06:00 +4°C° 0 mm 2 m/s 655 mmHg 54%
    07:00 +4°C° 0 mm 3 m/s 655 mmHg 49%
    08:00 +6°C° 0 mm 4 m/s 656 mmHg 44%
    09:00 +8°C° 0 mm 4 m/s 656 mmHg 39%
    10:00 +9°C° 0 mm 5 m/s 656 mmHg 36%
    11:00 +11°C° 0 mm 6 m/s 656 mmHg 33%
    12:00 +12°C° 0 mm 8 m/s 657 mmHg 29%
    13:00 +12°C° 0,1 mm 7 m/s 656 mmHg 30%
    14:00 +13°C° 0,1 mm 6 m/s 656 mmHg 32%
    15:00 +13°C° 0,1 mm 6 m/s 655 mmHg 33%
    16:00 +12°C° 0 mm 5 m/s 655 mmHg 38%
    17:00 +11°C° 0 mm 4 m/s 656 mmHg 42%
    18:00 +10°C° 0 mm 4 m/s 656 mmHg 47%
    19:00 +8°C° 0 mm 4 m/s 656 mmHg 51%
    20:00 +7°C° 0 mm 4 m/s 657 mmHg 56%
    21:00 +7°C° 0 mm 3 m/s 657 mmHg 60%
    22:00 +5°C° 0 mm 4 m/s 657 mmHg 62%
    23:00 +3°C° 0 mm 5 m/s 657 mmHg 64%

    25 Fevereiro, Domingo

    Tempo Temperatura Precipitação Vento Pressão Humidade
    00:00 +3°C° 0 mm 5 m/s 657 mmHg 67%
    01:00 +2°C° 0 mm 5 m/s 657 mmHg 72%
    02:00 +2°C° 0 mm 6 m/s 657 mmHg 77%
    03:00 +1°C° 0 mm 6 m/s 657 mmHg 82%
    04:00 +1°C° 0 mm 6 m/s 658 mmHg 83%
    05:00 +1°C° 0 mm 6 m/s 658 mmHg 85%
    06:00 -1°C° 0 mm 6 m/s 658 mmHg 86%
    07:00 0°C° 0 mm 7 m/s 659 mmHg 79%
    08:00 +2°C° 0 mm 7 m/s 659 mmHg 73%
    09:00 +3°C° 0 mm 7 m/s 660 mmHg 66%
    10:00 +4°C° 0 mm 7 m/s 660 mmHg 58%
    11:00 +5°C° 0 mm 7 m/s 660 mmHg 50%
    12:00 +6°C° 0 mm 7 m/s 660 mmHg 42%
    13:00 +6°C° 0 mm 7 m/s 660 mmHg 39%
    14:00 +8°C° 0 mm 7 m/s 660 mmHg 36%
    15:00 +8°C° 0 mm 7 m/s 660 mmHg 33%
    16:00 +8°C° 0 mm 6 m/s 660 mmHg 36%
    17:00 +7°C° 0 mm 4 m/s 660 mmHg 38%
    18:00 +7°C° 0 mm 3 m/s 660 mmHg 40%
    19:00 +6°C° 0 mm 2 m/s 660 mmHg 42%
    20:00 +5°C° 0 mm 2 m/s 660 mmHg 45%
    21:00 +6°C° 0 mm 1 m/s 661 mmHg 47%
    22:00 +5°C° 0 mm 1 m/s 660 mmHg 48%
    23:00 +5°C° 0 mm 1 m/s 660 mmHg 49%

    26 Fevereiro, Segunda-feira

    Tempo Temperatura Precipitação Vento Pressão Humidade
    00:00 +5°C° 0 mm 1 m/s 660 mmHg 50%
    01:00 +4°C° 0 mm 1 m/s 660 mmHg 51%
    02:00 +3°C° 0 mm 2 m/s 660 mmHg 52%
    03:00 +3°C° 0 mm 2 m/s 660 mmHg 53%
    04:00 +3°C° 0 mm 2 m/s 659 mmHg 54%
    05:00 +3°C° 0 mm 2 m/s 659 mmHg 55%
    06:00 +3°C° 0 mm 2 m/s 659 mmHg 56%
    07:00 +4°C° 0 mm 3 m/s 660 mmHg 50%
    08:00 +6°C° 0 mm 4 m/s 660 mmHg 44%
    09:00 +8°C° 0 mm 5 m/s 661 mmHg 38%
    10:00 +10°C° 0 mm 6 m/s 661 mmHg 36%
    11:00 +12°C° 0 mm 7 m/s 660 mmHg 33%
    12:00 +15°C° 0 mm 8 m/s 660 mmHg 30%
    13:00 +16°C° 0 mm 8 m/s 660 mmHg 29%
    14:00 +16°C° 0 mm 8 m/s 659 mmHg 29%
    15:00 +17°C° 0 mm 8 m/s 658 mmHg 28%
    16:00 +16°C° 0 mm 7 m/s 658 mmHg 31%
    17:00 +15°C° 0 mm 6 m/s 657 mmHg 34%
    18:00 +14°C° 0 mm 4 m/s 657 mmHg 37%
    19:00 +14°C° 0,1 mm 4 m/s 657 mmHg 39%
    20:00 +14°C° 0,1 mm 4 m/s 657 mmHg 41%
    21:00 +13°C° 0,1 mm 4 m/s 657 mmHg 44%
    22:00 +13°C° 0,3 mm 4 m/s 656 mmHg 47%
    23:00 +13°C° 0,3 mm 4 m/s 656 mmHg 50%
    Mostrar mais